Location: Arcusa
(42.3167°N, 0.0833°W)
Time: 12:43:54
(UTC+00:00)

Cosmos 2333 - Pass Details

Date: 25 January 2020
Orbit: 830 x 865 km, 70.9° (Epoch: 20 February)

Event Time Altitude Azimuth Distance (km) Brightness Sun altitude
Rises 06:45:17 0° 201° (SSW) 3,429 7.4 -6.9°
Reaches altitude 10° 06:47:43 10° 201° (SSW) 2,498 6.7 -6.5°
Maximum altitude 06:53:29 86° 112° (ESE) 873 4.4 -5.5°
Drops below altitude 10° 06:59:17 10° 25° (NNE) 2,512 6.7 -4.5°
Sets 07:01:45 0° 25° (NNE) 3,450 7.4 -4.1°
